Total_Precipitation_Accumulation
0.75 0.67 0.59 0.55 0.49 0.46 0.48 0.52 0.54 0.53 0.55 0.60 0.61 0.55 0.55 0.49 0.42 0.41 0.37 0.33 0.33 0.44 0.69 0.96 1.20 1.45 1.64 1.70 1.72 1.59 1.48 1.34 1.21 1.11 1.08 1.10 1.18 1.27 1.34 1.32 1.37 1.41 1.38
0.85 0.80 0.72 0.66 0.61 0.55 0.54 0.58 0.61 0.60 0.57 0.55 0.54 0.53 0.52 0.47 0.41 0.41 0.40 0.40 0.37 0.39 0.56 0.79 1.01 1.24 1.54 1.81 1.94 1.87 1.67 1.56 1.49 1.42 1.29 1.23 1.24 1.31 1.41 1.47 1.32 1.27 1.26
0.91 0.82 0.78 0.73 0.68 0.66 0.64 0.60 0.59 0.65 0.61 0.56 0.54 0.55 0.54 0.49 0.45 0.44 0.45 0.45 0.45 0.42 0.49 0.67 0.84 1.03 1.27 1.65 2.02 2.17 1.95 1.81 1.78 1.75 1.57 1.44 1.34 1.38 1.40 1.51 1.54 1.45 1.35
0.97 0.96 0.88 0.81 0.78 0.79 0.77 0.72 0.62 0.62 0.62 0.60 0.57 0.56 0.57 0.57 0.51 0.49 0.51 0.48 0.49 0.46 0.45 0.55 0.68 0.83 1.08 1.35 1.68 2.07 2.18 2.07 2.00 1.97 1.86 1.72 1.55 1.50 1.51 1.57 1.66 1.69 1.62
0.95 0.98 0.95 0.94 0.96 0.96 0.90 0.86 0.77 0.75 0.71 0.69 0.70 0.68 0.67 0.67 0.65 0.60 0.60 0.58 0.54 0.51 0.48 0.50 0.58 0.64 0.81 1.09 1.40 1.76 2.08 2.16 2.10 2.07 1.99 1.91 1.77 1.61 1.61 1.66 1.71 1.82 1.85
0.95 1.02 0.97 0.97 1.00 1.02 1.01 1.05 1.00 0.90 0.83 0.81 0.87 0.84 0.83 0.81 0.73 0.64 0.62 0.63 0.60 0.56 0.58 0.57 0.56 0.54 0.61 0.80 1.10 1.45 1.84 2.09 2.18 2.19 2.17 2.13 2.03 1.88 1.72 1.70 1.72 1.84 2.03
0.92 1.02 1.02 0.99 1.00 0.97 0.91 0.89 0.99 1.01 0.95 0.91 0.93 0.89 0.82 0.81 0.74 0.65 0.66 0.73 0.77 0.76 0.75 0.77 0.75 0.66 0.62 0.71 0.80 1.02 1.38 1.80 2.13 2.25 2.25 2.25 2.25 2.20 2.06 1.90 1.86 1.93 2.11
0.94 0.98 1.05 1.02 0.95 0.93 0.89 0.82 0.83 0.91 0.92 0.91 0.96 0.98 0.88 0.80 0.70 0.60 0.60 0.67 0.75 0.84 0.88 0.87 0.88 0.88 0.78 0.71 0.62 0.66 0.83 1.23 1.76 2.22 2.40 2.44 2.56 2.59 2.48 2.28 2.16 2.18 2.30
0.93 0.92 1.02 1.09 1.03 0.93 0.86 0.82 0.81 0.81 0.86 0.86 0.86 1.07 1.07 0.83 0.62 0.50 0.50 0.54 0.58 0.63 0.69 0.74 0.81 0.86 0.88 0.82 0.69 0.57 0.57 0.80 1.22 1.79 2.36 2.68 2.90 3.13 3.10 2.80 2.57 2.46 2.45
1.03 0.98 1.05 1.11 1.14 1.01 0.86 0.83 0.83 0.82 0.84 0.89 0.85 0.83 0.86 0.83 0.86 0.67 0.46 0.44 0.45 0.47 0.52 0.57 0.62 0.67 0.76 0.81 0.80 0.78 0.73 0.73 1.02 1.38 1.92 2.51 3.06 3.55 3.84 3.56 3.12 2.79 2.64
1.15 1.09 1.09 1.12 1.13 1.07 0.95 0.88 0.85 0.87 0.85 0.86 0.88 0.85 0.78 0.69 0.69 0.79 0.59 0.41 0.42 0.41 0.43 0.51 0.57 0.61 0.65 0.71 0.76 0.81 0.86 0.86 1.04 1.27 1.53 2.00 2.66 3.44 4.03 4.07 3.71 3.30 2.99
1.34 1.21 1.17 1.14 1.11 1.05 1.01 0.95 0.92 0.91 0.88 0.86 0.86 0.85 0.85 0.84 0.73 0.75 0.68 0.46 0.41 0.39 0.41 0.47 0.56 0.66 0.72 0.79 0.84 0.97 0.97 0.99 1.09 1.26 1.33 1.56 2.00 2.73 3.62 4.13 4.05 3.77 3.46
1.36 1.27 1.17 1.12 1.11 1.08 1.02 0.99 0.99 0.99 0.99 0.99 0.96 0.90 0.83 0.76 0.74 0.82 0.86 0.64 0.47 0.38 0.39 0.44 0.48 0.61 0.74 0.83 0.88 0.98 0.95 0.94 1.00 1.13 1.17 1.19 1.34 1.83 2.69 3.65 4.19 4.19 3.99
1.41 1.32 1.29 1.26 1.17 1.12 1.12 1.08 1.03 0.99 1.01 1.00 0.97 0.94 0.93 0.82 0.78 0.83 0.93 0.99 0.87 0.57 0.43 0.38 0.39 0.49 0.65 0.77 0.89 1.02 0.92 0.92 0.90 0.99 1.09 1.12 1.12 1.25 1.72 2.60 3.55 4.23 4.33
1.48 1.43 1.35 1.33 1.29 1.25 1.27 1.28 1.19 1.06 1.04 0.99 0.94 0.93 0.95 0.88 0.83 0.81 0.84 1.00 1.27 1.10 0.62 0.38 0.37 0.42 0.56 0.71 0.87 0.92 0.90 0.99 0.98 0.97 1.02 1.09 1.14 1.19 1.33 1.69 2.44 3.37 4.13
1.52 1.51 1.46 1.37 1.30 1.26 1.29 1.37 1.33 1.18 1.12 1.07 1.02 0.98 0.97 0.92 0.89 0.87 0.88 0.90 1.05 1.23 0.94 0.43 0.37 0.39 0.51 0.67 0.82 0.85 0.85 0.97 0.98 0.99 0.97 0.99 1.08 1.19 1.29 1.43 1.77 2.49 3.31
1.52 1.52 1.46 1.40 1.34 1.32 1.31 1.33 1.32 1.31 1.27 1.20 1.16 1.14 1.04 0.97 1.00 0.97 0.95 0.95 0.96 1.11 1.14 0.56 0.39 0.43 0.57 0.71 0.78 0.80 0.80 0.84 0.86 0.96 0.98 0.99 1.00 1.08 1.22 1.33 1.49 1.87 2.56
1.32 1.43 1.48 1.48 1.41 1.34 1.36 1.42 1.39 1.37 1.38 1.33 1.29 1.25 1.17 1.13 1.11 1.06 1.10 1.07 0.99 0.99 1.12 0.88 0.53 0.49 0.57 0.66 0.75 0.82 0.84 0.84 0.83 0.91 0.95 1.02 1.08 1.09 1.15 1.25 1.38 1.54 1.91
1.40 1.40 1.47 1.47 1.44 1.45 1.46 1.45 1.46 1.45 1.44 1.39 1.38 1.40 1.34 1.31 1.27 1.20 1.20 1.20 1.13 1.05 1.08 1.09 0.77 0.60 0.62 0.70 0.83 0.90 0.94 0.98 0.96 1.00 1.00 1.02 1.13 1.20 1.20 1.26 1.37 1.47 1.56
1.58 1.61 1.55 1.53 1.51 1.55 1.75 1.79 1.68 1.61 1.54 1.47 1.45 1.47 1.47 1.47 1.43 1.43 1.49 1.47 1.45 1.45 1.37 1.32 1.08 0.85 0.81 0.82 0.95 1.02 1.02 1.02 1.07 1.04 1.09 1.05 1.09 1.18 1.21 1.20 1.23 1.26 1.40
1.71 1.71 1.72 1.65 1.63 1.72 2.01 2.15 1.94 1.79 1.71 1.62 1.52 1.50 1.50 1.61 1.73 1.87 1.99 1.90 1.81 1.85 1.78 1.70 1.48 1.22 1.05 1.06 1.15 1.11 1.15 1.09 1.13 1.14 1.12 1.06 1.01 0.99 1.06 1.18 1.27 1.31 1.36
1.83 1.81 1.74 1.68 1.60 1.70 2.14 2.25 1.95 1.72 1.57 1.56 1.54 1.48 1.48 1.57 1.63 1.75 1.91 1.92 1.90 2.05 2.12 2.01 1.80 1.54 1.22 1.12 1.22 1.40 1.50 1.54 1.45 1.24 1.24 1.25 1.15 1.14 1.12 1.12 1.30 1.36 1.41
1.74 1.76 1.72 1.65 1.57 1.58 2.04 2.16 1.93 1.55 1.39 1.38 1.35 1.33 1.33 1.39 1.52 1.41 1.56 1.64 1.65 1.74 1.90 2.01 2.04 1.70 1.43 1.32 1.56 1.78 1.79 1.77 1.50 1.30 1.46 1.62 1.47 1.40 1.31 1.32 1.44 1.37 1.43
1.59 1.59 1.53 1.48 1.43 1.50 1.94 2.16 1.98 1.46 1.30 1.28 1.25 1.23 1.21 1.21 1.31 1.48 1.53 1.50 1.38 1.36 1.51 1.67 1.83 1.70 1.60 1.67 1.98 2.26 2.33 2.34 2.02 1.67 1.60 1.86 1.69 1.63 1.57 1.50 1.52 1.41 1.42
1.36 1.40 1.38 1.34 1.31 1.34 1.68 2.03 1.94 1.49 1.42 1.33 1.27 1.27 1.27 1.17 1.36 1.60 1.62 1.54 1.35 1.23 1.31 1.53 1.73 1.83 1.93 2.11 2.37 2.73 2.85 2.93 2.75 2.26 1.94 1.97 1.85 1.78 1.80 1.77 1.70 1.61 1.51
1.21 1.23 1.28 1.29 1.27 1.28 1.49 1.82 1.94 1.56 1.48 1.39 1.32 1.33 1.50 1.45 1.50 1.58 1.57 1.63 1.59 1.29 1.14 1.22 1.32 1.44 1.53 1.72 2.10 2.34 2.54 2.81 2.76 2.59 2.14 2.06 2.06 2.06 2.28 1.97 1.71 1.57 1.52